Home > Weather > Seoul > Past weeks

Flag for South Korea Weather for the Past 2 Weeks in Seoul, South Korea

Now
12 °F

Clear.


Feels Like: 12 °F
Forecast: 12 / 35 °F
Wind: 2 mph from North

Location: Seoul / Kimp'O International Airport

Current Time: Feb 7, 2016 at 8:44:29 AM

Latest Report: Feb 7, 2016 at 8:00 AM


Visibility: 6 mi

Pressure: 30.24 "Hg

Humidity: 73%

Dew point: 5 °F

Location of SeoulLocation

Historic Weather in Seoul — Graph

°F

Seoul Temperature Yesterday

Maximum temperature yesterday: 34 °F (at 2:00 PM)
Minimum temperature yesterday: 18 °F (at 6:00 AM)
Average temperature yesterday: 26 °F

High & Low Weather Summary for the Past Weeks

 TemperatureHumidityPressure
High43 °F (Jan 29, 4:00 PM)86% (Jan 28, 4:00 AM)30.51 "Hg (Jan 28, 4:00 AM)
Low0 °F (Jan 24, 7:00 AM)12% (Feb 5, 3:00 PM)30.18 "Hg (Feb 5, 4:00 PM)
Average23 °F46%30.34 "Hg
* Reported Jan 23 7:00 AM — Feb 7 7:00 AM, Seoul, Weather by CustomWeather, © 2016

Note: Actual official high and low records may vary slightly from our data, if they occured in-between our weather recording intervals... More about our weather records

Advertising

Seoul Weather History for the Previous 24 Hours

 ConditionsComfort  
Time TempWeatherWind HumidityBarometerVisibility
7:00 AM
Sun, Feb 7
12 °FClear.3 mph79%30.24 "Hg6 mi
6:00 AM10 °FClear.2 mph72%30.24 "Hg10 mi
5:00 AM12 °FClear.2 mph62%30.27 "Hg10 mi
4:00 AM12 °FClear.5 mph62%30.27 "Hg10 mi
3:00 AM14 °FClear.3 mph62%30.30 "Hg10 mi
2:00 AM18 °FClear.No wind58%30.30 "Hg10 mi
1:00 AM14 °FClear.3 mph62%30.30 "Hg10 mi
12:00 AM19 °FClear.2 mph49%30.30 "Hg10 mi
11:00 PM
Sat, Feb 6
21 °FClear.8 mph42%30.30 "Hg10 mi
10:00 PM23 °FClear.6 mph33%30.27 "Hg10 mi
9:00 PM25 °FClear.5 mph30%30.27 "Hg10 mi
8:00 PM25 °FClear.2 mph28%30.27 "Hg10 mi
7:00 PM28 °FClear.6 mph24%30.24 "Hg10 mi
6:00 PM30 °FSunny.7 mph22%30.24 "Hg10 mi
5:00 PM32 °FSunny.10 mph27%30.21 "Hg10 mi
4:00 PM34 °FPassing clouds.13 mph27%30.21 "HgN/A
3:00 PM34 °FPassing clouds.9 mph23%30.21 "HgN/A
2:00 PM34 °FPassing clouds.9 mph19%30.21 "HgN/A
1:00 PM32 °FPassing clouds.7 mph23%30.21 "HgN/A
12:00 PM30 °FPassing clouds.8 mph29%30.24 "HgN/A
11:00 AM28 °FSunny.9 mph31%30.24 "Hg10 mi
10:00 AM27 °FSunny.9 mph39%30.24 "Hg10 mi
9:00 AM23 °FSunny.2 mph50%30.24 "Hg10 mi
8:00 AM19 °FSunny.3 mph49%30.24 "Hg10 mi
Weather by CustomWeather, © 2016

See weather overviewHow to use our weather pages